Boonville, MO

10:42 PM CST on February 21, 2017 (GMT -0600)
Viertel Memorial

Weather History for KVER - May, 2013

Change the Weather History Date:

Friday, May 3, 2013

  Actual Average Record
Temperature  
Mean Temperature 36 °F -  
Max Temperature 86 °F 70 °F 88 °F (1968)
Min Temperature 35 °F 47 °F 33 °F (1976)
Degree Days  
Heating Degree Days 28    
Moisture  
Dew Point 35 °F    
Average Humidity 97    
Maximum Humidity 99    
Minimum Humidity 94    
Precipitation  
Precipitation 0.16 in - - ()
Sea Level Pressure  
Sea Level Pressure 30.02 in    
Wind  
Wind Speed 10 mph (NW)    
Max Wind Speed 14 mph    
Max Gust Speed 20 mph    
Visibility 5 miles    
Events Rain    
Averages and records for this station are not official NWS values.
T = Trace of Precipitation, MM = Missing Value Source: NWS Daily Summary

Daily Weather History Graph

Daily Weather History Graph

Search for Another Location

Airport or City:

Trip Planner

Search our weather history database for the weather conditions in past years. The results will help you decide how hot, cold, wet, or windy it might be!

Date:

Astronomy

May. 03, 2013 Rise Set
Actual Time 6:10 AM CDT 8:05 PM CDT
Civil Twilight 5:41 AM CDT 8:34 PM CDT
Nautical Twilight 5:05 AM CDT 9:10 PM CDT
Astronomical Twilight 4:28 AM CDT 9:48 PM CDT
Moon 2:31 AM CDT (5/3) 2:03 PM CDT (5/3)
Length of Visible Light 14h 53m
Length of Day
13h 55m
Last Quarter, 37% of the Moon is Illuminated
May 3
Last Quarter
May 9
New
May 17
First Quarter
May 24
Full
May 31
Last Quarter

Hourly Weather History & Observations

Time (CDT) Temp. Windchill Dew Point Humidity Pressure Visibility Wind Dir Wind Speed Gust Speed Precip Events Conditions
12:15 AM 36.0 °F 29.6 °F 35.1 °F 97% 30.22 in 4.0 mi NNW 8.1 mph - 0.01 in Rain Light Rain
12:35 AM 36.0 °F 28.0 °F 35.1 °F 97% 30.20 in 4.0 mi NNW 11.5 mph - 0.02 in Rain Heavy Rain
12:55 AM 36.0 °F 28.5 °F 35.1 °F 97% 30.19 in 2.5 mi NNW 10.4 mph - 0.03 in Rain Light Rain
1:15 AM 35.8 °F 27.3 °F 34.9 °F 97% 30.18 in 4.0 mi NW 12.7 mph 16.1 mph 0.01 in Rain Light Rain
1:35 AM 35.6 °F 28.0 °F 34.9 °F 97% 30.17 in 3.0 mi NNW 10.4 mph - 0.02 in Rain Light Rain
1:55 AM 35.8 °F 30.1 °F 35.1 °F 97% 30.17 in 4.0 mi NW 6.9 mph - 0.03 in Rain Light Rain
2:15 AM 35.8 °F 28.8 °F 35.1 °F 97% 30.15 in 2.5 mi NNW 9.2 mph - 0.02 in Rain Rain
2:35 AM 35.6 °F 27.5 °F 35.1 °F 98% 30.13 in 7.0 mi NNW 11.5 mph 17.3 mph 0.02 in Rain Light Rain
2:55 AM 35.6 °F 29.2 °F 34.9 °F 97% 30.15 in 5.0 mi NW 8.1 mph - 0.03 in Rain Light Rain
3:15 AM 35.6 °F 29.2 °F 34.9 °F 97% 30.12 in 4.0 mi NNW 8.1 mph - N/A Rain Rain
3:35 AM 35.6 °F 28.6 °F 34.7 °F 97% 30.13 in 5.0 mi NNW 9.2 mph - 0.01 in Rain Rain
3:55 AM 35.6 °F 28.6 °F 34.9 °F 97% 30.12 in 4.0 mi NW 9.2 mph 16.1 mph 0.02 in Rain Rain
4:15 AM 35.4 °F 27.8 °F 34.7 °F 97% 30.11 in 5.0 mi NNW 10.4 mph 17.3 mph 0.01 in Rain Rain
4:35 AM 35.4 °F 29.7 °F 34.7 °F 97% 30.11 in 5.0 mi NNW 6.9 mph - 0.02 in Rain Light Rain
4:55 AM 35.4 °F 28.4 °F 34.7 °F 97% 30.11 in 7.0 mi NNW 9.2 mph - 0.02 in Rain Rain
5:15 AM 35.2 °F 27.6 °F 34.7 °F 98% 30.10 in 5.0 mi NW 10.4 mph - 0.01 in Rain Rain
5:35 AM 35.1 °F 27.4 °F 34.5 °F 98% 30.10 in 7.0 mi NW 10.4 mph - 0.01 in Rain Light Rain
5:55 AM 35.1 °F 27.9 °F 34.5 °F 98% 30.09 in 10.0 mi NNW 9.2 mph - 0.01 in   Drizzle
6:15 AM 35.1 °F 27.4 °F 34.3 °F 97% 30.09 in 10.0 mi NNW 10.4 mph - N/A Rain Light Rain
6:35 AM 35.2 °F 27.6 °F 34.3 °F 97% 30.10 in 7.0 mi NNW 10.4 mph - N/A Rain Light Rain
6:55 AM 35.2 °F 28.1 °F 34.3 °F 97% 30.09 in 5.0 mi NW 9.2 mph - N/A Rain Light Rain
7:15 AM 35.4 °F 29.0 °F 34.5 °F 97% 30.09 in 7.0 mi NW 8.1 mph - N/A Rain Rain
7:35 AM 35.4 °F 26.8 °F 34.5 °F 97% 30.08 in 10.0 mi NW 12.7 mph - N/A   Light Drizzle
7:55 AM 35.4 °F 27.8 °F 34.7 °F 97% 30.07 in 7.0 mi NNW 10.4 mph 16.1 mph N/A Rain Light Rain
8:35 AM 35.4 °F 28.4 °F 34.7 °F 97% 30.04 in 10.0 mi NNW 9.2 mph - 0.01 in   Light Drizzle
8:55 AM 35.8 °F 29.4 °F 34.9 °F 97% 30.05 in 10.0 mi NNW 8.1 mph - 0.01 in   Overcast
9:15 AM 36.1 °F 28.2 °F 34.9 °F 95% 30.05 in 10.0 mi NNW 11.5 mph - N/A   Overcast
9:35 AM 36.5 °F 28.7 °F 34.9 °F 94% 30.04 in 10.0 mi NNW 11.5 mph - N/A   Light Drizzle
9:55 AM 36.5 °F 31.0 °F 34.9 °F 94% 30.05 in 10.0 mi NNW 6.9 mph - N/A   Overcast
10:15 AM 36.5 °F 29.2 °F 34.9 °F 94% 30.05 in 10.0 mi NW 10.4 mph - N/A Rain Light Rain
10:35 AM 36.7 °F 28.9 °F 35.2 °F 95% 30.04 in 5.0 mi NW 11.5 mph - N/A Rain Light Rain
10:55 AM 36.7 °F 28.9 °F 35.6 °F 96% 30.04 in 4.0 mi NW 11.5 mph - N/A   Light Drizzle
11:15 AM 36.9 °F 30.7 °F 36.0 °F 97% 30.03 in 2.0 mi NW 8.1 mph - N/A Rain Light Rain
11:35 AM 36.9 °F 30.7 °F 36.1 °F 97% 30.03 in 2.5 mi NNW 8.1 mph - N/A Rain Rain
11:55 AM 37.2 °F 30.6 °F 36.5 °F 97% 30.00 in 4.0 mi NNW 9.2 mph - N/A   Light Drizzle
12:15 PM 37.6 °F 31.6 °F 36.7 °F 97% 30.00 in 10.0 mi NNW 8.1 mph 11.5 mph N/A   Overcast
12:55 PM 37.8 °F 30.7 °F 36.9 °F 97% 30.01 in 4.0 mi NNW 10.4 mph - N/A   Light Drizzle
1:15 PM 37.8 °F 30.2 °F 36.5 °F 95% 29.99 in 3.0 mi NNW 11.5 mph 16.1 mph N/A   Drizzle
1:35 PM 37.8 °F 31.8 °F 36.7 °F 96% 29.99 in 2.5 mi NW 8.1 mph - 0.01 in   Drizzle
1:55 PM 37.4 °F 29.8 °F 36.5 °F 97% 29.99 in 2.0 mi NW 11.5 mph - 0.01 in   Light Drizzle
2:15 PM 37.8 °F 31.3 °F 37.0 °F 97% 29.98 in 1.8 mi NW 9.2 mph 16.1 mph N/A   Overcast
2:35 PM 37.9 °F 30.9 °F 37.0 °F 97% 29.99 in 4.0 mi NW 10.4 mph - N/A   Overcast
2:55 PM 38.1 °F 29.8 °F 36.9 °F 95% 29.96 in 4.0 mi NW 13.8 mph - N/A   Light Drizzle
3:15 PM 38.1 °F 30.7 °F 37.0 °F 96% 29.97 in 3.0 mi NW 11.5 mph - N/A   Light Drizzle
3:35 PM 37.6 °F 30.5 °F 36.5 °F 96% 29.96 in 2.5 mi NW 10.4 mph - N/A   Light Drizzle
3:55 PM 37.4 °F 30.3 °F 36.5 °F 97% 29.96 in 2.5 mi NNW 10.4 mph 16.1 mph N/A   Light Drizzle
4:15 PM 37.6 °F 31.0 °F 36.5 °F 96% 29.96 in 2.5 mi NW 9.2 mph - N/A Rain Light Rain
4:35 PM 37.6 °F 29.1 °F 36.3 °F 95% 29.93 in 2.5 mi NW 13.8 mph - N/A   Overcast
4:55 PM 37.8 °F 30.7 °F 36.7 °F 96% 29.94 in 3.0 mi NNW 10.4 mph 18.4 mph N/A   Overcast
5:15 PM 37.6 °F 30.0 °F 36.1 °F 95% 29.94 in 5.0 mi NW 11.5 mph 19.6 mph N/A   Overcast
5:35 PM 37.4 °F 30.8 °F 36.0 °F 95% 29.93 in 3.0 mi NNW 9.2 mph 17.3 mph N/A   Overcast
5:55 PM 37.0 °F 29.3 °F 36.0 °F 96% 29.93 in 3.0 mi NNW 11.5 mph 18.4 mph N/A   Light Drizzle
6:15 PM 37.0 °F 30.4 °F 36.1 °F 97% 29.93 in 7.0 mi NNW 9.2 mph 18.4 mph N/A   Overcast
6:35 PM 36.9 °F 30.1 °F 35.8 °F 96% 29.93 in 7.0 mi NW 9.2 mph - N/A   Overcast
7:15 PM 36.5 °F 29.2 °F 35.6 °F 97% 29.92 in 4.0 mi NNW 10.4 mph 17.3 mph N/A   Light Drizzle
7:35 PM 36.3 °F 29.5 °F 35.4 °F 97% 29.93 in 4.0 mi NW 9.2 mph 16.1 mph N/A   Overcast
7:55 PM 36.1 °F 29.9 °F 35.4 °F 97% 29.92 in 3.0 mi NNW 8.1 mph 17.3 mph N/A   Overcast
8:15 PM 36.1 °F 29.3 °F 35.4 °F 97% 29.91 in 4.0 mi NW 9.2 mph - N/A   Overcast
8:35 PM 36.0 °F 29.0 °F 35.2 °F 97% 29.91 in 3.0 mi NW 9.2 mph - N/A   Drizzle
8:55 PM 35.8 °F 29.4 °F 35.2 °F 98% 29.91 in 3.0 mi WNW 8.1 mph - N/A Rain Light Rain
9:15 PM 35.6 °F 29.2 °F 35.1 °F 98% 29.91 in 4.0 mi WNW 8.1 mph - N/A Rain Light Rain
9:35 PM 35.6 °F 30.7 °F 35.1 °F 98% 29.91 in 2.5 mi NW 5.8 mph - N/A   Light Drizzle
9:55 PM 35.6 °F 29.2 °F 35.1 °F 98% 29.90 in 1.8 mi NW 8.1 mph - N/A Rain Light Rain
10:15 PM 35.6 °F 29.2 °F 35.1 °F 98% 29.89 in 2.5 mi NW 8.1 mph - N/A   Drizzle
10:35 PM 35.4 °F 30.5 °F 34.9 °F 98% 29.88 in 3.0 mi NW 5.8 mph - N/A Rain Light Rain
10:55 PM 35.2 °F 28.8 °F 34.9 °F 99% 29.86 in 3.0 mi WNW 8.1 mph - N/A   Overcast
11:15 PM 35.2 °F 28.1 °F 34.9 °F 99% 29.86 in 4.0 mi NW 9.2 mph - N/A   Overcast
11:35 PM 35.4 °F 31.5 °F 34.9 °F 98% 29.87 in 4.0 mi WNW 4.6 mph - N/A   Overcast
11:55 PM 35.6 °F 31.7 °F 35.1 °F 98% 29.87 in 2.0 mi WSW 4.6 mph - N/A   Drizzle